Regional Weather Roundup
Issued by NWS Newport/Morehead, NC

Current Version | Previous Version | Text Only | Print | Product List | Glossary Off
Versions: 1 2 3 4 5 6 7 8 9 10 11 12 13 14 15 16 17 18 19 20 21 22 23 24 25 26 27 28 29 30 31 32 33 34 35 36 37 38 39 40 41 42 43 44 45 46 47 48 49 50
000 ASUS42 KMHX 172226 RWRMHX WEATHER ROUNDUP FOR EASTERN NORTH CAROLINA NATIONAL WEATHER SERVICE NEWPORT/MOREHEAD CITY NC 500 PM EST WED JAN 17 2018 NOTE: "FAIR" INDICATES FEW OR NO CLOUDS BELOW 12,000 FEET WITH NO SIGNIFICANT WEATHER AND/OR OBSTRUCTIONS TO VISIBILITY NCZ015>017-031-032-045>047-102-103-172300- NORTH COAST CITY SKY/WX TMP DP RH WIND PRES REMARKS EDENTON LGT SNOW 35 30 83 N8 30.21F ELIZABETH CITY MOCLDY 31 29 92 N17 30.21F WCI 19 KITTY HAWK CLOUDY 34 34 100 N12G23 30.18R MANTEO CLOUDY 34 31 90 N17G26 30.19S $$ NCZ045>047-081-094-103-104-172300- CENTRAL COAST CITY SKY/WX TMP DP RH WIND PRES REMARKS FRISCO RAIN 39 38 96 N12G22 30.14R FOG $$ NCZ095-097-098-100-101-172300- SOUTHERN COAST CITY SKY/WX TMP DP RH WIND PRES REMARKS BEAUFORT FAIR 40 34 79 N16G22 30.13F CEDAR ISLAND NOT AVBL JACKSONVILLE MOCLDY 46 34 62 NE13 30.11F PINEY ISLAND NOT AVBL WILMINGTON CLOUDY 47 33 58 N7 30.09F $$ NCZ011>013-027>030-043-044-078>080-089-090>093-098-172300- COASTAL PLAIN CITY SKY/WX TMP DP RH WIND PRES REMARKS AHOSKIE LGT SNOW 27 26 96 N13 30.24S WCI 17 CLINTON CLOUDY 37 35 96 N6 30.15S ELIZABETHTOWN NOT AVBL GOLDSBORO FLURRIES 36 32 87 N8 30.13F GREENVILLE LGT RAIN 36 32 87 NE10 30.19S HAVELOCK MOCLDY 44 33 65 NE16 30.14S KENANSVILLE CLOUDY 39 30 70 N12 30.14S KINSTON CLOUDY 39 32 75 N12G18 30.15F NEW BERN CLOUDY 40 31 70 NE15G23 30.15F RICHLANDS FAIR 44 33 65 N14G21 30.12F ROCKY MOUNT LGT SNOW 30 29 96 N17 30.21R VSB 3/4 WCI 18 WASHINGTON CLOUDY 37 30 75 NE10 30.17F WHITEVILLE LGT RAIN 39 35 87 N3 30.11F $$ AMZ130-135-150-152-154-156-158-170-250-252-270-ANZ085-086-088-633-658-670-172300- MARINE OBSERVATIONS STATION/POSITION TIME TEMP WIND PRES WAVE SWELL AIR SEA DIR/SP/G HT/PER HT/PER (UTC) (F) (DEG/KT/KT) (MB) (FT/S) (FT/S) CHESAPEAKE LIGHT NOT AVBL 64 E VA BEACH 2150 42 55 350/ 21/ 27 1021.5 7/11 5/11 DUCK 2200 33 39 10/ 24/ 27 1021.7 2 E DUCK 2200 40 N/A 6/ 5 2/11 OREGON INLET 2200 36 41 350/ 16/ 23 1021.1 13E OREGON INLT 2148 45 N/A 8/11 5/11 HATTERAS CG 2200 38 48 10/ 23/ 27 1020.2 DIAMOND BUOY 2210 47 360/ 25/ 29 1018.8 CAPE LOOKOUT 2200 360/ 17/ 21 1019.8 BEAUFORT LAB 2200 40 46 20/ 16/ 20 1020.1 30 SE NEW RVR IN 2208 48 58 50/ 19/ 23 1019.0 30 SE NEW RVR IN 2200 58 N/A 6/11 2/11 27 SE WRIGHTSVLE 2208 50 60 70/ 21/ 27 1018.3 5 SE WRIGHTSVLE 2208 47 47 70/ 16/ 19 1018.3 225 S CAPE HAT 2150 63 70 320/ 23/ 29 1015.8 8/11 7/11 41 SE CHARLESTON 2210 50 300/ 16/ 21 1019.6 $$

USA.gov is the U.S. government's official web portal to all federal, state and local government web resources and services.